Simultaneous Nadir Overpasses (SNOs) Predictions

Prediction of SNOs between GOES-15 and TERRA Satellite Orbit:

Table of predicted SNOs for the next 14.0 days since TLE Epoch: 12/24/2022
Index Date Time (GOES-15) GOES-15 Lat,Lon TERRA Lat,Lon Distance(km) Time Diff (sec)
1 12/25/2022 06:34:14 0.08,-127.54 0.41,-125.91 184.73 80
2 12/25/2022 18:54:35 -0.07,-127.48 0.64,-130.85 382.69 80
3 12/27/2022 18:41:30 -0.07,-127.55 -0.17,-127.04 57.82 80
4 12/28/2022 07:01:59 0.06,-127.65 -0.86,-132.02 497.41 80
5 12/29/2022 18:25:45 -0.06,-127.63 -0.98,-123.24 498.42 80
6 12/30/2022 06:46:14 0.06,-127.72 -0.04,-128.22 56.98 80
7 01/01/2023 06:27:49 0.06,-127.78 0.79,-124.42 383.20 80
8 01/01/2023 18:50:49 -0.05,-127.72 0.30,-129.35 184.66 80
9 01/03/2023 18:35:04 -0.05,-127.79 -0.55,-125.55 255.15 80
10 01/04/2023 06:55:31 0.05,-127.88 -0.52,-130.51 300.14 80
11 01/06/2023 06:37:06 0.05,-127.93 0.28,-126.70 138.99 80
12 01/06/2023 18:57:26 -0.04,-127.87 0.73,-131.65 429.60 80
